| time (UTC) | temp F | wind direction | speed MPH | gust MPH | rain 1hr in | rain 24hr in | rain mn in | humidity % | barometer mb |
| 20260507122904 | 57 | 183 | 3.0 | 7.0 | 0.00 | 0.01 | 0.00 | 56 | 1016.2 |
| 20260507121904 | 58 | 150 | 3.0 | 8.0 | 0.00 | 0.01 | 0.00 | 56 | 1016.2 |
| 20260507121404 | 59 | 150 | 4.0 | 8.0 | 0.00 | 0.01 | 0.00 | 55 | 1016.3 |
| 20260507120905 | 59 | 132 | 3.0 | 8.0 | 0.00 | 0.01 | 0.00 | 54 | 1016.3 |
| 20260507120404 | 60 | 141 | 3.0 | 10.0 | 0.00 | 0.01 | 0.00 | 54 | 1016.3 |
| 20260507115905 | 61 | 129 | 3.0 | 10.0 | 0.00 | 0.01 | 0.00 | 54 | 1016.4 |
| 20260507115404 | 61 | 118 | 6.0 | 12.0 | 0.00 | 0.01 | 0.00 | 53 | 1016.4 |
| 20260507113905 | 62 | 125 | 5.0 | 12.0 | 0.00 | 0.01 | 0.00 | 51 | 1016.4 |
| 20260507113405 | 62 | 134 | 6.0 | 12.0 | 0.00 | 0.01 | 0.00 | 51 | 1016.4 |
| 20260507112405 | 61 | 96 | 5.0 | 12.0 | 0.00 | 0.01 | 0.00 | 54 | 1016.3 |
| 20260507111905 | 61 | 156 | 5.0 | 10.0 | 0.00 | 0.01 | 0.00 | 52 | 1016.4 |
| 20260507111405 | 60 | 193 | 3.0 | 8.0 | 0.00 | 0.01 | 0.00 | 56 | 1016.3 |
| 20260507110904 | 60 | 112 | 2.0 | 5.0 | 0.00 | 0.01 | 0.00 | 55 | 1016.4 |
| 20260507110405 | 60 | 186 | 2.0 | 6.0 | 0.00 | 0.01 | 0.00 | 54 | 1016.4 |
| 20260507105905 | 60 | 196 | 2.0 | 6.0 | 0.00 | 0.01 | 0.00 | 55 | 1016.4 |
| 20260507104904 | 60 | 183 | 3.0 | 10.0 | 0.00 | 0.01 | 0.00 | 53 | 1016.5 |
| 20260507104405 | 59 | 113 | 2.0 | 6.0 | 0.00 | 0.01 | 0.00 | 56 | 1016.5 |
| 20260507103905 | 59 | 145 | 2.0 | 8.0 | 0.00 | 0.01 | 0.00 | 55 | 1016.6 |
| 20260507103404 | 59 | 143 | 3.0 | 10.0 | 0.00 | 0.01 | 0.00 | 58 | 1016.7 |
| 20260507102905 | 58 | 146 | 3.0 | 10.0 | 0.00 | 0.01 | 0.00 | 59 | 1016.8 |
| 20260507102405 | 58 | 137 | 3.0 | 9.0 | 0.00 | 0.01 | 0.00 | 60 | 1016.7 |
| 20260507101905 | 58 | 155 | 4.0 | 9.0 | 0.00 | 0.01 | 0.00 | 62 | 1016.7 |
| 20260507101404 | 57 | 168 | 4.0 | 10.0 | 0.00 | 0.01 | 0.00 | 62 | 1016.7 |
| 20260507100905 | 57 | 145 | 5.0 | 10.0 | 0.00 | 0.01 | 0.00 | 64 | 1016.7 |
| 20260507100405 | 57 | 190 | 1.0 | 9.0 | 0.00 | 0.01 | 0.00 | 66 | 1016.6 |
| 20260507095904 | 56 | 96 | 5.0 | 9.0 | 0.00 | 0.01 | 0.00 | 65 | 1016.6 |
| 20260507094905 | 56 | 149 | 5.0 | 9.0 | 0.00 | 0.01 | 0.00 | 67 | 1016.9 |
| 20260507092904 | 54 | 145 | 2.0 | 12.0 | 0.00 | 0.01 | 0.00 | 70 | 1016.9 |
| 20260507092405 | 54 | 138 | 5.0 | 12.0 | 0.00 | 0.01 | 0.00 | 71 | 1016.9 |
| 20260507091905 | 53 | 170 | 3.0 | 8.0 | 0.00 | 0.01 | 0.00 | 73 | 1017.0 |
| 20260507090905 | 53 | 205 | 2.0 | 5.0 | 0.00 | 0.01 | 0.00 | 75 | 1016.9 |
| 20260507090404 | 52 | 132 | 1.0 | 6.0 | 0.00 | 0.01 | 0.00 | 76 | 1017.0 |
| 20260507085404 | 52 | 172 | 2.0 | 5.0 | 0.00 | 0.01 | 0.00 | 75 | 1017.0 |
| 20260507084905 | 52 | 171 | 2.0 | 7.0 | 0.00 | 0.01 | 0.00 | 75 | 1016.9 |
| 20260507084405 | 52 | 136 | 3.0 | 7.0 | 0.00 | 0.01 | 0.00 | 75 | 1016.9 |
| 20260507083904 | 52 | 123 | 3.0 | 7.0 | 0.00 | 0.01 | 0.00 | 77 | 1017.0 |
| 20260507082905 | 52 | 130 | 4.0 | 8.0 | 0.00 | 0.01 | 0.00 | 76 | 1017.0 |
| 20260507082404 | 52 | 114 | 1.0 | 9.0 | 0.00 | 0.01 | 0.00 | 78 | 1017.0 |
| 20260507081905 | 52 | 144 | 4.0 | 9.0 | 0.00 | 0.01 | 0.00 | 78 | 1017.1 |
| 20260507080904 | 51 | 132 | 4.0 | 8.0 | 0.00 | 0.01 | 0.00 | 81 | 1017.0 |
| 20260507080405 | 50 | 137 | 3.0 | 8.0 | 0.00 | 0.01 | 0.00 | 82 | 1017.0 |
| 20260507075405 | 49 | 171 | 2.0 | 6.0 | 0.00 | 0.01 | 0.00 | 82 | 1016.9 |
| 20260507074905 | 49 | 149 | 3.0 | 7.0 | 0.00 | 0.01 | 0.00 | 83 | 1016.8 |
| 20260507074404 | 49 | 146 | 2.0 | 7.0 | 0.00 | 0.01 | 0.00 | 83 | 1016.8 |
| 20260507073904 | 49 | 142 | 2.0 | 5.0 | 0.00 | 0.01 | 0.00 | 83 | 1016.8 |
| 20260507073405 | 49 | 186 | 2.0 | 7.0 | 0.00 | 0.01 | 0.00 | 84 | 1016.8 |
| 20260507072905 | 48 | 119 | 2.0 | 7.0 | 0.00 | 0.01 | 0.00 | 85 | 1016.8 |
| 20260507072405 | 48 | 130 | 3.0 | 7.0 | 0.00 | 0.01 | 0.00 | 86 | 1016.7 |
| 20260507071905 | 48 | 145 | 1.0 | 3.0 | 0.00 | 0.01 | 0.00 | 86 | 1016.6 |
| 20260507071404 | 47 | 107 | 1.0 | 3.0 | 0.00 | 0.01 | 0.00 | 86 | 1016.7 |
| 20260507070905 | 47 | 141 | 2.0 | 3.0 | 0.00 | 0.01 | 0.00 | 86 | 1016.7 |
| 20260507070405 | 47 | 144 | 1.0 | 3.0 | 0.00 | 0.01 | 0.00 | 87 | 1016.6 |
| 20260507065904 | 47 | 147 | 1.0 | 3.0 | 0.00 | 0.01 | 0.00 | 88 | 1016.7 |
| 20260507064905 | 46 | 111 | 1.0 | 3.0 | 0.00 | 0.01 | 0.00 | 88 | 1016.5 |
| 20260507064405 | 46 | 124 | 1.0 | 3.0 | 0.00 | 0.01 | 0.00 | 88 | 1016.6 |
| 20260507063905 | 46 | 108 | 1.0 | 3.0 | 0.00 | 0.01 | 0.00 | 89 | 1016.5 |
| 20260507063404 | 46 | 145 | 1.0 | 3.0 | 0.00 | 0.01 | 0.00 | 89 | 1016.5 |
| 20260507062904 | 46 | 79 | 0.0 | 2.0 | 0.00 | 0.01 | 0.00 | 90 | 1016.5 |
| 20260507062405 | 45 | 74 | 1.0 | 3.0 | 0.00 | 0.01 | 0.00 | 90 | 1016.4 |
| 20260507060905 | 45 | 69 | 1.0 | 6.0 | 0.00 | 0.01 | 0.00 | 89 | 1016.3 |
| 20260507060405 | 45 | 87 | 0.0 | 3.0 | 0.00 | 0.01 | 0.00 | 90 | 1016.3 |
| 20260507055905 | 45 | 67 | 1.0 | 3.0 | 0.00 | 0.01 | 0.00 | 90 | 1016.4 |
| 20260507055404 | 45 | 79 | 1.0 | 2.0 | 0.00 | 0.01 | 0.00 | 90 | 1016.3 |
| 20260507053904 | 45 | 84 | 0.0 | 1.0 | 0.00 | 0.01 | 0.00 | 89 | 1016.4 |
| 20260507053405 | 45 | 84 | 0.0 | 1.0 | 0.00 | 0.01 | 0.00 | 89 | 1016.4 |
| 20260507052904 | 45 | 84 | 0.0 | 2.0 | 0.00 | 0.01 | 0.00 | 90 | 1016.3 |
| 20260507051905 | 45 | 90 | 0.0 | 2.0 | 0.00 | 0.01 | 0.00 | 90 | 1016.2 |
| 20260507051404 | 45 | 81 | 0.0 | 2.0 | 0.00 | 0.01 | 0.00 | 90 | 1016.2 |
| 20260507050904 | 45 | 87 | 0.0 | 2.0 | 0.00 | 0.01 | 0.00 | 90 | 1016.2 |
| 20260507050404 | 45 | 87 | 0.0 | 2.0 | 0.00 | 0.01 | 0.00 | 90 | 1016.2 |
| 20260507045905 | 45 | 77 | 0.0 | 2.0 | 0.00 | 0.01 | 0.00 | 90 | 1016.2 |
| 20260507045404 | 45 | 95 | 0.0 | 2.0 | 0.00 | 0.01 | 0.00 | 90 | 1016.1 |
| 20260507044404 | 45 | 55 | 0.0 | 1.0 | 0.00 | 0.01 | 0.00 | 90 | 1016.0 |
| 20260507043905 | 45 | 18 | 0.0 | 0.0 | 0.00 | 0.01 | 0.00 | 90 | 1016.0 |
| 20260507043405 | 45 | 18 | 0.0 | 1.0 | 0.00 | 0.01 | 0.00 | 90 | 1016.0 |
| 20260507042905 | 45 | 18 | 0.0 | 1.0 | 0.00 | 0.01 | 0.00 | 90 | 1016.0 |
| 20260507042404 | 45 | 18 | 0.0 | 1.0 | 0.00 | 0.01 | 0.00 | 90 | 1016.0 |
| 20260507041405 | 45 | 18 | 0.0 | 2.0 | 0.00 | 0.01 | 0.00 | 90 | 1016.0 |
| 20260507040905 | 45 | 15 | 0.0 | 2.0 | 0.00 | 0.01 | 0.00 | 90 | 1016.0 |
| 20260507040404 | 45 | 11 | 0.0 | 3.0 | 0.00 | 0.01 | 0.00 | 90 | 1016.0 |
| 20260507035905 | 45 | 6 | 0.0 | 3.0 | 0.00 | 0.01 | 0.00 | 90 | 1016.0 |
| 20260507035404 | 45 | 24 | 1.0 | 3.0 | 0.00 | 0.01 | 0.00 | 90 | 1016.0 |
| 20260507034905 | 45 | 18 | 0.0 | 3.0 | 0.00 | 0.01 | 0.00 | 90 | 1015.9 |
| 20260507034405 | 45 | 18 | 1.0 | 3.0 | 0.00 | 0.01 | 0.00 | 90 | 1015.9 |
| 20260507033905 | 45 | 18 | 1.0 | 3.0 | 0.00 | 0.01 | 0.00 | 91 | 1015.9 |
| 20260507033404 | 45 | 20 | 1.0 | 2.0 | 0.00 | 0.01 | 0.00 | 91 | 1015.9 |
| 20260507032904 | 44 | 22 | 0.0 | 1.0 | 0.00 | 0.01 | 0.00 | 91 | 1015.9 |
| 20260507031905 | 44 | 22 | 0.0 | 2.0 | 0.00 | 0.01 | 0.00 | 90 | 1015.9 |
| 20260507031405 | 44 | 23 | 0.0 | 2.0 | 0.00 | 0.01 | 0.00 | 90 | 1015.9 |
| 20260507030904 | 44 | 29 | 1.0 | 2.0 | 0.00 | 0.01 | 0.00 | 90 | 1015.8 |
| 20260507025404 | 44 | 13 | 0.0 | 1.0 | 0.00 | 0.01 | 0.00 | 91 | 1015.9 |
| 20260507024905 | 44 | 13 | 0.0 | 3.0 | 0.00 | 0.01 | 0.00 | 91 | 1015.9 |
| 20260507024405 | 44 | 13 | 0.0 | 3.0 | 0.00 | 0.01 | 0.00 | 91 | 1015.8 |
| 20260507023405 | 44 | 5 | 0.0 | 2.0 | 0.00 | 0.01 | 0.00 | 91 | 1015.8 |
| 20260507022905 | 44 | 5 | 1.0 | 2.0 | 0.00 | 0.01 | 0.00 | 91 | 1015.8 |
| 20260507022405 | 44 | 5 | 0.0 | 2.0 | 0.00 | 0.01 | 0.00 | 91 | 1015.8 |
| 20260507021905 | 44 | 7 | 0.0 | 2.0 | 0.00 | 0.01 | 0.00 | 91 | 1015.8 |
| 20260507021404 | 44 | 12 | 1.0 | 2.0 | 0.00 | 0.01 | 0.00 | 90 | 1015.8 |
| 20260507020905 | 44 | 10 | 0.0 | 2.0 | 0.00 | 0.01 | 0.00 | 90 | 1015.8 |
| 20260507020404 | 44 | 345 | 0.0 | 2.0 | 0.00 | 0.01 | 0.00 | 90 | 1015.9 |
| 20260507015904 | 44 | 6 | 0.0 | 0.0 | 0.00 | 0.01 | 0.00 | 90 | 1015.9 |
| 20260507015405 | 44 | 6 | 0.0 | 0.0 | 0.00 | 0.01 | 0.00 | 90 | 1015.8 |
| 20260507014905 | 44 | 6 | 0.0 | 2.0 | 0.00 | 0.01 | 0.00 | 90 | 1015.9 |
| 20260507014406 | 43 | 6 | 0.0 | 2.0 | 0.00 | 0.01 | 0.00 | 90 | 1015.8 |
| 20260507013905 | 43 | 6 | 0.0 | 2.0 | 0.00 | 0.01 | 0.00 | 90 | 1015.8 |
| 20260507013405 | 43 | 6 | 0.0 | 0.0 | 0.00 | 0.01 | 0.00 | 90 | 1015.8 |
| 20260507011904 | 43 | 6 | 0.0 | 1.0 | 0.00 | 0.01 | 0.00 | 89 | 1015.9 |
| 20260507011404 | 43 | 6 | 0.0 | 1.0 | 0.00 | 0.01 | 0.00 | 88 | 1016.0 |
| 20260507010405 | 44 | 6 | 0.0 | 1.0 | 0.00 | 0.01 | 0.00 | 88 | 1015.9 |
| 20260507005905 | 44 | 6 | 0.0 | 2.0 | 0.00 | 0.01 | 0.00 | 88 | 1015.9 |
| 20260507005404 | 44 | 358 | 0.0 | 2.0 | 0.00 | 0.01 | 0.00 | 88 | 1015.9 |
| 20260507004904 | 44 | 348 | 0.0 | 2.0 | 0.00 | 0.01 | 0.00 | 87 | 1015.9 |
| 20260507004405 | 45 | 25 | 1.0 | 6.0 | 0.00 | 0.01 | 0.00 | 88 | 1015.8 |
| 20260507002904 | 45 | 75 | 1.0 | 7.0 | 0.00 | 0.01 | 0.00 | 88 | 1015.8 |
| 20260507002404 | 45 | 71 | 3.0 | 8.0 | 0.00 | 0.01 | 0.00 | 87 | 1015.8 |
| 20260507001405 | 45 | 104 | 5.0 | 9.0 | 0.00 | 0.01 | 0.00 | 88 | 1015.8 |
| 20260507000905 | 45 | 94 | 2.0 | 8.0 | 0.00 | 0.01 | 0.00 | 88 | 1016.0 |
| 20260507000406 | 45 | 102 | 3.0 | 8.0 | 0.00 | 0.01 | 0.00 | 88 | 1016.0 |
| 20260506235905 | 45 | 58 | 2.0 | 5.0 | 0.00 | 0.01 | 0.00 | 88 | 1015.9 |
| 20260506235404 | 45 | 55 | 2.0 | 5.0 | 0.00 | 0.01 | 0.00 | 88 | 1016.0 |
| 20260506234904 | 45 | 53 | 2.0 | 3.0 | 0.00 | 0.01 | 0.00 | 88 | 1016.0 |
| 20260506234405 | 45 | 61 | 1.0 | 5.0 | 0.00 | 0.01 | 0.00 | 88 | 1016.0 |
| 20260506233906 | 45 | 69 | 2.0 | 7.0 | 0.00 | 0.01 | 0.00 | 89 | 1016.1 |
| 20260506233404 | 46 | 66 | 3.0 | 7.0 | 0.00 | 0.01 | 0.00 | 89 | 1016.0 |
| 20260506232904 | 46 | 65 | 1.0 | 5.0 | 0.00 | 0.01 | 0.00 | 89 | 1016.0 |
| 20260506232405 | 46 | 62 | 2.0 | 3.0 | 0.00 | 0.01 | 0.00 | 89 | 1016.0 |
| 20260506231905 | 46 | 65 | 1.0 | 3.0 | 0.00 | 0.01 | 0.00 | 89 | 1016.1 |
| 20260506231404 | 46 | 47 | 1.0 | 3.0 | 0.00 | 0.01 | 0.00 | 89 | 1016.1 |
| 20260506230904 | 46 | 29 | 0.0 | 3.0 | 0.00 | 0.01 | 0.00 | 89 | 1016.1 |
| 20260506230404 | 46 | 41 | 1.0 | 3.0 | 0.00 | 0.01 | 0.00 | 89 | 1016.1 |
| 20260506225905 | 46 | 29 | 1.0 | 3.0 | 0.00 | 0.01 | 0.01 | 89 | 1016.2 |
| 20260506225405 | 46 | 33 | 0.0 | 2.0 | 0.00 | 0.01 | 0.01 | 89 | 1016.2 |
| 20260506224905 | 46 | 12 | 0.0 | 2.0 | 0.00 | 0.01 | 0.01 | 88 | 1016.2 |
| 20260506224404 | 46 | 54 | 1.0 | 2.0 | 0.01 | 0.01 | 0.01 | 89 | 1016.2 |
| 20260506223905 | 46 | 60 | 0.0 | 2.0 | 0.01 | 0.01 | 0.01 | 88 | 1016.2 |
| 20260506223404 | 46 | 22 | 0.0 | 2.0 | 0.01 | 0.01 | 0.01 | 88 | 1016.2 |
| 20260506222405 | 46 | 27 | 0.0 | 2.0 | 0.01 | 0.01 | 0.01 | 88 | 1016.2 |
| 20260506221904 | 46 | 15 | 0.0 | 3.0 | 0.01 | 0.01 | 0.01 | 88 | 1016.1 |
| 20260506221405 | 46 | 14 | 1.0 | 3.0 | 0.01 | 0.01 | 0.01 | 87 | 1016.2 |
| 20260506220905 | 46 | 47 | 1.0 | 3.0 | 0.01 | 0.01 | 0.01 | 87 | 1016.2 |
| 20260506220405 | 46 | 4 | 2.0 | 3.0 | 0.01 | 0.01 | 0.01 | 87 | 1016.2 |
| 20260506215904 | 46 | 46 | 1.0 | 5.0 | 0.01 | 0.01 | 0.01 | 87 | 1016.2 |
| 20260506215405 | 46 | 38 | 2.0 | 5.0 | 0.01 | 0.01 | 0.01 | 87 | 1016.1 |
| 20260506214905 | 46 | 61 | 0.0 | 3.0 | 0.01 | 0.01 | 0.01 | 87 | 1016.1 |
| 20260506214405 | 46 | 56 | 1.0 | 3.0 | 0.00 | 0.00 | 0.00 | 86 | 1016.0 |
| 20260506213904 | 47 | 43 | 0.0 | 3.0 | 0.00 | 0.00 | 0.00 | 86 | 1016.1 |
| 20260506213405 | 47 | 49 | 0.0 | 3.0 | 0.00 | 0.00 | 0.00 | 86 | 1016.1 |
| 20260506212905 | 47 | 36 | 1.0 | 5.0 | 0.00 | 0.00 | 0.00 | 85 | 1016.2 |
| 20260506212406 | 47 | 64 | 1.0 | 5.0 | 0.00 | 0.00 | 0.00 | 84 | 1016.1 |
| 20260506211904 | 47 | 64 | 1.0 | 5.0 | 0.00 | 0.00 | 0.00 | 83 | 1016.1 |
| 20260506211404 | 47 | 58 | 2.0 | 5.0 | 0.00 | 0.00 | 0.00 | 83 | 1016.0 |
| 20260506210905 | 47 | 47 | 2.0 | 3.0 | 0.00 | 0.00 | 0.00 | 82 | 1016.0 |
| 20260506210404 | 47 | 56 | 1.0 | 6.0 | 0.00 | 0.00 | 0.00 | 81 | 1016.0 |
| 20260506205905 | 47 | 41 | 1.0 | 6.0 | 0.00 | 0.00 | 0.00 | 81 | 1015.9 |
| 20260506205404 | 47 | 73 | 2.0 | 6.0 | 0.00 | 0.00 | 0.00 | 81 | 1015.9 |
| 20260506204905 | 47 | 77 | 2.0 | 3.0 | 0.00 | 0.00 | 0.00 | 81 | 1015.9 |
| 20260506204405 | 47 | 40 | 2.0 | 6.0 | 0.00 | 0.00 | 0.00 | 81 | 1015.9 |
| 20260506203404 | 47 | 45 | 2.0 | 6.0 | 0.00 | 0.00 | 0.00 | 81 | 1015.7 |
| 20260506202905 | 47 | 49 | 1.0 | 3.0 | 0.00 | 0.00 | 0.00 | 81 | 1015.7 |
| 20260506202405 | 47 | 60 | 1.0 | 5.0 | 0.00 | 0.00 | 0.00 | 80 | 1015.7 |
| 20260506201904 | 47 | 26 | 1.0 | 7.0 | 0.00 | 0.00 | 0.00 | 80 | 1015.6 |
| 20260506201404 | 47 | 35 | 2.0 | 7.0 | 0.00 | 0.00 | 0.00 | 80 | 1015.6 |
| 20260506200905 | 47 | 58 | 0.0 | 7.0 | 0.00 | 0.00 | 0.00 | 80 | 1015.6 |
| 20260506195904 | 47 | 3 | 2.0 | 7.0 | 0.00 | 0.00 | 0.00 | 79 | 1015.5 |
| 20260506194905 | 48 | 35 | 3.0 | 12.0 | 0.00 | 0.00 | 0.00 | 79 | 1015.4 |
| 20260506194405 | 48 | 23 | 3.0 | 10.0 | 0.00 | 0.00 | 0.00 | 78 | 1015.4 |
| 20260506193904 | 48 | 28 | 3.0 | 7.0 | 0.00 | 0.00 | 0.00 | 79 | 1015.4 |
| 20260506193404 | 48 | 43 | 2.0 | 6.0 | 0.00 | 0.00 | 0.00 | 79 | 1015.4 |
| 20260506192904 | 48 | 36 | 3.0 | 6.0 | 0.00 | 0.00 | 0.00 | 78 | 1015.3 |
| 20260506191904 | 48 | 45 | 3.0 | 6.0 | 0.00 | 0.00 | 0.00 | 78 | 1015.3 |
| 20260506191404 | 48 | 34 | 2.0 | 8.0 | 0.00 | 0.00 | 0.00 | 78 | 1015.3 |
| 20260506190905 | 49 | 59 | 2.0 | 12.0 | 0.00 | 0.00 | 0.00 | 78 | 1015.4 |
| 20260506185904 | 49 | 37 | 4.0 | 10.0 | 0.00 | 0.00 | 0.00 | 77 | 1015.4 |
| 20260506185404 | 49 | 22 | 3.0 | 10.0 | 0.00 | 0.00 | 0.00 | 77 | 1015.3 |
| 20260506184904 | 49 | 36 | 2.0 | 10.0 | 0.00 | 0.00 | 0.00 | 76 | 1015.3 |
| 20260506184405 | 49 | 28 | 4.0 | 10.0 | 0.00 | 0.00 | 0.00 | 76 | 1015.2 |
| 20260506183904 | 50 | 6 | 3.0 | 8.0 | 0.00 | 0.00 | 0.00 | 76 | 1015.2 |
| 20260506183404 | 50 | 40 | 3.0 | 8.0 | 0.00 | 0.00 | 0.00 | 76 | 1015.1 |
| 20260506182904 | 50 | 16 | 2.0 | 9.0 | 0.00 | 0.00 | 0.00 | 76 | 1015.1 |
| 20260506182405 | 50 | 5 | 3.0 | 9.0 | 0.00 | 0.00 | 0.00 | 76 | 1015.1 |
| 20260506181905 | 50 | 27 | 3.0 | 9.0 | 0.00 | 0.00 | 0.00 | 76 | 1015.0 |
| 20260506181404 | 50 | 62 | 3.0 | 9.0 | 0.00 | 0.00 | 0.00 | 75 | 1014.9 |
| 20260506180905 | 50 | 23 | 3.0 | 9.0 | 0.00 | 0.00 | 0.00 | 74 | 1014.9 |
| 20260506180404 | 51 | 18 | 3.0 | 10.0 | 0.00 | 0.00 | 0.00 | 74 | 1014.8 |
| 20260506175905 | 51 | 25 | 3.0 | 10.0 | 0.00 | 0.00 | 0.00 | 74 | 1014.8 |
| 20260506175404 | 51 | 29 | 5.0 | 10.0 | 0.00 | 0.00 | 0.00 | 73 | 1014.7 |
| 20260506174905 | 51 | 44 | 3.0 | 10.0 | 0.00 | 0.00 | 0.00 | 73 | 1014.7 |
| 20260506174405 | 52 | 42 | 3.0 | 10.0 | 0.00 | 0.00 | 0.00 | 73 | 1014.7 |
| 20260506173904 | 52 | 26 | 5.0 | 12.0 | 0.00 | 0.00 | 0.00 | 73 | 1014.7 |
| 20260506173404 | 52 | 35 | 3.0 | 12.0 | 0.00 | 0.00 | 0.00 | 72 | 1014.7 |
| 20260506172905 | 52 | 30 | 3.0 | 10.0 | 0.00 | 0.00 | 0.00 | 73 | 1014.7 |
| 20260506172404 | 52 | 18 | 3.0 | 10.0 | 0.00 | 0.00 | 0.00 | 72 | 1014.6 |
| 20260506171905 | 52 | 28 | 4.0 | 12.0 | 0.00 | 0.00 | 0.00 | 71 | 1014.6 |
| 20260506171406 | 53 | 44 | 4.0 | 13.0 | 0.00 | 0.00 | 0.00 | 70 | 1014.6 |
| 20260506170904 | 53 | 39 | 4.0 | 13.0 | 0.00 | 0.00 | 0.00 | 70 | 1014.6 |
| 20260506170405 | 53 | 22 | 3.0 | 10.0 | 0.00 | 0.00 | 0.00 | 69 | 1014.7 |
| 20260506165904 | 54 | 26 | 5.0 | 10.0 | 0.00 | 0.00 | 0.00 | 69 | 1014.6 |
| 20260506165404 | 54 | 19 | 4.0 | 12.0 | 0.00 | 0.00 | 0.00 | 69 | 1014.6 |
| 20260506164904 | 54 | 23 | 5.0 | 12.0 | 0.00 | 0.00 | 0.00 | 68 | 1014.5 |
| 20260506164405 | 54 | 40 | 5.0 | 12.0 | 0.00 | 0.00 | 0.00 | 68 | 1014.5 |
| 20260506163904 | 54 | 14 | 2.0 | 12.0 | 0.00 | 0.00 | 0.00 | 67 | 1014.4 |
| 20260506163404 | 55 | 59 | 3.0 | 10.0 | 0.00 | 0.00 | 0.00 | 66 | 1014.4 |
| 20260506162905 | 55 | 54 | 3.0 | 10.0 | 0.00 | 0.00 | 0.00 | 66 | 1014.5 |
| 20260506161904 | 55 | 76 | 3.0 | 9.0 | 0.00 | 0.00 | 0.00 | 65 | 1014.4 |
| 20260506161404 | 55 | 75 | 4.0 | 12.0 | 0.00 | 0.00 | 0.00 | 65 | 1014.4 |
| 20260506160904 | 55 | 60 | 3.0 | 12.0 | 0.00 | 0.00 | 0.00 | 66 | 1014.4 |
| 20260506160404 | 56 | 16 | 3.0 | 9.0 | 0.00 | 0.00 | 0.00 | 65 | 1014.4 |
| 20260506155904 | 56 | 27 | 3.0 | 9.0 | 0.00 | 0.00 | 0.00 | 65 | 1014.4 |
| 20260506155405 | 56 | 28 | 3.0 | 10.0 | 0.00 | 0.00 | 0.00 | 65 | 1014.4 |
| 20260506154904 | 56 | 21 | 4.0 | 10.0 | 0.00 | 0.00 | 0.00 | 64 | 1014.4 |
| 20260506154404 | 56 | 38 | 3.0 | 9.0 | 0.00 | 0.00 | 0.00 | 63 | 1014.4 |
| 20260506153904 | 56 | 56 | 3.0 | 9.0 | 0.00 | 0.00 | 0.00 | 63 | 1014.4 |
| 20260506153404 | 56 | 17 | 3.0 | 9.0 | 0.00 | 0.00 | 0.00 | 63 | 1014.4 |
| 20260506152905 | 57 | 48 | 4.0 | 9.0 | 0.00 | 0.00 | 0.00 | 61 | 1014.4 |
| 20260506152404 | 57 | 36 | 3.0 | 9.0 | 0.00 | 0.00 | 0.00 | 61 | 1014.3 |
| 20260506151904 | 57 | 57 | 3.0 | 8.0 | 0.00 | 0.00 | 0.00 | 61 | 1014.3 |
| 20260506151404 | 57 | 29 | 2.0 | 8.0 | 0.00 | 0.00 | 0.00 | 62 | 1014.3 |
| 20260506150404 | 57 | 43 | 3.0 | 10.0 | 0.00 | 0.00 | 0.00 | 61 | 1014.4 |
| 20260506145405 | 57 | 17 | 4.0 | 12.0 | 0.00 | 0.00 | 0.00 | 60 | 1014.3 |
| 20260506144904 | 57 | 28 | 2.0 | 12.0 | 0.00 | 0.00 | 0.00 | 59 | 1014.3 |
| 20260506144404 | 57 | 6 | 3.0 | 12.0 | 0.00 | 0.00 | 0.00 | 57 | 1014.3 |
| 20260506143405 | 58 | 25 | 3.0 | 12.0 | 0.00 | 0.00 | 0.00 | 56 | 1014.3 |
| 20260506142905 | 59 | 78 | 3.0 | 12.0 | 0.00 | 0.00 | 0.00 | 55 | 1014.2 |
| 20260506141905 | 59 | 355 | 3.0 | 10.0 | 0.00 | 0.00 | 0.00 | 54 | 1014.2 |
| 20260506140904 | 59 | 9 | 5.0 | 12.0 | 0.00 | 0.00 | 0.00 | 52 | 1014.3 |
| 20260506140405 | 59 | 61 | 3.0 | 12.0 | 0.00 | 0.00 | 0.00 | 51 | 1014.3 |
| 20260506135904 | 59 | 355 | 3.0 | 9.0 | 0.00 | 0.00 | 0.00 | 52 | 1014.3 |
| 20260506134905 | 60 | 16 | 4.0 | 12.0 | 0.00 | 0.00 | 0.00 | 52 | 1014.3 |
| 20260506133904 | 61 | 12 | 5.0 | 13.0 | 0.00 | 0.00 | 0.00 | 53 | 1014.3 |
| 20260506132904 | 61 | 47 | 3.0 | 10.0 | 0.00 | 0.00 | 0.00 | 53 | 1014.3 |
| 20260506132404 | 61 | 73 | 4.0 | 8.0 | 0.00 | 0.00 | 0.00 | 51 | 1014.2 |
| 20260506131905 | 60 | 35 | 2.0 | 8.0 | 0.00 | 0.00 | 0.00 | 52 | 1014.3 |
| 20260506130404 | 61 | 17 | 6.0 | 13.0 | 0.00 | 0.00 | 0.00 | 49 | 1014.3 |
| 20260506124904 | 60 | 34 | 3.0 | 12.0 | 0.00 | 0.00 | 0.00 | 54 | 1014.3 |
| 20260506123904 | 59 | 34 | 3.0 | 12.0 | 0.00 | 0.00 | 0.00 | 57 | 1014.3 |
| 20260506123404 | 59 | 19 | 5.0 | 12.0 | 0.00 | 0.00 | 0.00 | 56 | 1014.2 |